EN

Hourly Weather Glasgow

Today, 14 June, Monday

Time Temperature Precipitation Wind Pressure Humidity
00:00 +15°C° 0 mm 4 mps 759 mmHg 86%
01:00 +15°C° 0.8 mm 4 mps 759 mmHg 89%
02:00 +14°C° 0.8 mm 4 mps 758 mmHg 93%
03:00 +14°C° 0.8 mm 4 mps 757 mmHg 96%
04:00 +13°C° 0.4 mm 5 mps 758 mmHg 91%
05:00 +12°C° 0.4 mm 5 mps 758 mmHg 86%
06:00 +11°C° 0 mm 6 mps 758 mmHg 81%
07:00 +13°C° 0 mm 6 mps 758 mmHg 72%
08:00 +14°C° 0 mm 6 mps 759 mmHg 63%
09:00 +15°C° 0 mm 6 mps 759 mmHg 54%
10:00 +16°C° 0 mm 6 mps 759 mmHg 53%
11:00 +16°C° 0 mm 6 mps 759 mmHg 52%
12:00 +17°C° 0 mm 6 mps 759 mmHg 51%
13:00 +17°C° 0 mm 6 mps 759 mmHg 51%
14:00 +17°C° 0 mm 6 mps 759 mmHg 52%
15:00 +17°C° 0 mm 6 mps 759 mmHg 52%
16:00 +16°C° 0 mm 6 mps 760 mmHg 55%
17:00 +16°C° 0 mm 6 mps 760 mmHg 59%
18:00 +15°C° 0 mm 5 mps 760 mmHg 62%
19:00 +14°C° 0 mm 5 mps 761 mmHg 64%
20:00 +12°C° 0 mm 5 mps 761 mmHg 67%
21:00 +11°C° 0 mm 4 mps 762 mmHg 69%
22:00 +10°C° 0 mm 4 mps 762 mmHg 72%
23:00 +8°C° 0 mm 4 mps 762 mmHg 74%

Tomorrow, 15 June, Tuesday

Time Temperature Precipitation Wind Pressure Humidity
00:00 +7°C° 0 mm 4 mps 762 mmHg 77%
01:00 +7°C° 0 mm 4 mps 763 mmHg 79%
02:00 +7°C° 0 mm 3 mps 763 mmHg 81%
03:00 +7°C° 0 mm 3 mps 763 mmHg 84%
04:00 +8°C° 0 mm 3 mps 764 mmHg 80%
05:00 +9°C° 0 mm 2 mps 764 mmHg 76%
06:00 +10°C° 0 mm 2 mps 764 mmHg 72%
07:00 +11°C° 0 mm 3 mps 764 mmHg 70%
08:00 +12°C° 0 mm 4 mps 764 mmHg 67%
09:00 +13°C° 0 mm 4 mps 764 mmHg 65%
10:00 +13°C° 0 mm 5 mps 763 mmHg 65%
11:00 +13°C° 0 mm 6 mps 763 mmHg 64%
12:00 +14°C° 0 mm 7 mps 762 mmHg 64%
13:00 +12°C° 0 mm 7 mps 761 mmHg 67%
14:00 +12°C° 0 mm 8 mps 761 mmHg 71%
15:00 +12°C° 0 mm 8 mps 760 mmHg 74%
16:00 +12°C° 0 mm 8 mps 759 mmHg 75%
17:00 +12°C° 0 mm 8 mps 758 mmHg 77%
18:00 +12°C° 0 mm 8 mps 758 mmHg 78%
19:00 +13°C° 0 mm 8 mps 757 mmHg 75%
20:00 +14°C° 0 mm 7 mps 757 mmHg 72%
21:00 +14°C° 0 mm 7 mps 756 mmHg 69%
22:00 +14°C° 0 mm 7 mps 756 mmHg 69%
23:00 +13°C° 0 mm 8 mps 755 mmHg 70%

Day after tomorrow, 16 June, Wednesday

Time Temperature Precipitation Wind Pressure Humidity
00:00 +13°C° 0 mm 8 mps 754 mmHg 71%
01:00 +12°C° 0 mm 8 mps 754 mmHg 73%
02:00 +12°C° 0 mm 7 mps 754 mmHg 75%
03:00 +12°C° 0 mm 7 mps 753 mmHg 77%
04:00 +14°C° 0 mm 7 mps 753 mmHg 79%
05:00 +14°C° 0 mm 6 mps 753 mmHg 82%
06:00 +14°C° 0 mm 6 mps 753 mmHg 84%
07:00 +15°C° 0 mm 6 mps 753 mmHg 79%
08:00 +16°C° 0 mm 6 mps 753 mmHg 74%
09:00 +17°C° 0 mm 7 mps 754 mmHg 68%
10:00 +17°C° 0 mm 7 mps 754 mmHg 62%
11:00 +18°C° 0 mm 7 mps 754 mmHg 56%
12:00 +18°C° 0 mm 7 mps 754 mmHg 50%
13:00 +18°C° 0 mm 7 mps 754 mmHg 51%
14:00 +18°C° 0 mm 7 mps 754 mmHg 52%
15:00 +18°C° 0 mm 7 mps 754 mmHg 54%
16:00 +18°C° 0 mm 7 mps 754 mmHg 57%
17:00 +17°C° 0 mm 6 mps 754 mmHg 61%
18:00 +17°C° 0 mm 6 mps 754 mmHg 65%
19:00 +16°C° 0 mm 5 mps 755 mmHg 66%
20:00 +15°C° 0 mm 4 mps 755 mmHg 67%
21:00 +14°C° 0 mm 3 mps 755 mmHg 69%
22:00 +13°C° 0.1 mm 3 mps 755 mmHg 71%
23:00 +13°C° 0.1 mm 3 mps 755 mmHg 74%

17 June, Thursday

Time Temperature Precipitation Wind Pressure Humidity
00:00 +12°C° 0.1 mm 3 mps 755 mmHg 77%
01:00 +12°C° 0.9 mm 3 mps 755 mmHg 83%
02:00 +12°C° 0.9 mm 2 mps 755 mmHg 90%
03:00 +12°C° 0.9 mm 1 mps 755 mmHg 97%
04:00 +12°C° 0.1 mm 1 mps 756 mmHg 96%
05:00 +12°C° 0.1 mm 2 mps 756 mmHg 96%
06:00 +12°C° 0.1 mm 2 mps 756 mmHg 95%
07:00 +13°C° 0 mm 2 mps 757 mmHg 91%
08:00 +14°C° 0 mm 2 mps 757 mmHg 87%
09:00 +14°C° 0 mm 2 mps 757 mmHg 83%
10:00 +15°C° 0 mm 2 mps 757 mmHg 78%
11:00 +16°C° 0 mm 2 mps 758 mmHg 73%
12:00 +17°C° 0 mm 2 mps 758 mmHg 68%
13:00 +17°C° 0.1 mm 2 mps 758 mmHg 71%
14:00 +17°C° 0.1 mm 2 mps 758 mmHg 75%
15:00 +16°C° 0.1 mm 3 mps 758 mmHg 78%
16:00 +15°C° 0.1 mm 2 mps 758 mmHg 81%
17:00 +15°C° 0.1 mm 2 mps 759 mmHg 85%
18:00 +14°C° 0.1 mm 2 mps 759 mmHg 88%
19:00 +13°C° 0.1 mm 2 mps 759 mmHg 90%
20:00 +13°C° 0.1 mm 1 mps 760 mmHg 92%
21:00 +12°C° 0.1 mm 1 mps 760 mmHg 94%
22:00 +12°C° 0.1 mm 2 mps 761 mmHg 94%
23:00 +11°C° 0.1 mm 3 mps 761 mmHg 94%

18 June, Friday

Time Temperature Precipitation Wind Pressure Humidity
00:00 +11°C° 0.1 mm 4 mps 761 mmHg 94%
01:00 +10°C° 0 mm 4 mps 762 mmHg 94%
02:00 +9°C° 0 mm 5 mps 762 mmHg 94%
03:00 +9°C° 0 mm 5 mps 763 mmHg 94%
04:00 +9°C° 0 mm 5 mps 763 mmHg 91%
05:00 +9°C° 0 mm 5 mps 764 mmHg 89%
06:00 +10°C° 0 mm 4 mps 764 mmHg 87%
07:00 +11°C° 0 mm 4 mps 764 mmHg 81%
08:00 +12°C° 0 mm 4 mps 765 mmHg 75%
09:00 +12°C° 0 mm 4 mps 765 mmHg 69%
10:00 +13°C° 0 mm 4 mps 765 mmHg 67%
11:00 +13°C° 0 mm 4 mps 765 mmHg 65%
12:00 +14°C° 0 mm 5 mps 765 mmHg 63%
13:00 +14°C° 0 mm 5 mps 765 mmHg 64%
14:00 +13°C° 0 mm 5 mps 765 mmHg 65%
15:00 +13°C° 0 mm 5 mps 765 mmHg 66%
16:00 +12°C° 0 mm 4 mps 765 mmHg 67%
17:00 +12°C° 0 mm 3 mps 764 mmHg 68%
18:00 +11°C° 0 mm 3 mps 764 mmHg 69%
19:00 +10°C° 0 mm 3 mps 764 mmHg 75%
20:00 +9°C° 0 mm 2 mps 764 mmHg 81%
21:00 +8°C° 0 mm 2 mps 764 mmHg 87%
22:00 +8°C° 0 mm 2 mps 764 mmHg 89%
23:00 +7°C° 0 mm 2 mps 763 mmHg 90%

19 June, Saturday

Time Temperature Precipitation Wind Pressure Humidity
00:00 +7°C° 0 mm 2 mps 763 mmHg 92%
01:00 +7°C° 0 mm 2 mps 763 mmHg 92%
02:00 +7°C° 0 mm 2 mps 762 mmHg 92%
03:00 +6°C° 0 mm 2 mps 762 mmHg 93%
04:00 +7°C° 0 mm 2 mps 762 mmHg 89%
05:00 +8°C° 0 mm 2 mps 762 mmHg 85%
06:00 +9°C° 0 mm 2 mps 762 mmHg 82%
07:00 +10°C° 0 mm 2 mps 762 mmHg 76%
08:00 +12°C° 0 mm 2 mps 761 mmHg 70%
09:00 +13°C° 0 mm 2 mps 761 mmHg 64%
10:00 +14°C° 0 mm 2 mps 761 mmHg 64%
11:00 +14°C° 0 mm 2 mps 761 mmHg 64%
12:00 +14°C° 0 mm 2 mps 761 mmHg 64%
13:00 +15°C° 0 mm 2 mps 760 mmHg 64%
14:00 +15°C° 0 mm 2 mps 760 mmHg 64%
15:00 +14°C° 0 mm 3 mps 760 mmHg 65%
16:00 +14°C° 0 mm 3 mps 760 mmHg 67%
17:00 +13°C° 0 mm 3 mps 760 mmHg 69%
18:00 +13°C° 0 mm 4 mps 760 mmHg 70%
19:00 +12°C° 0 mm 4 mps 760 mmHg 77%
20:00 +10°C° 0 mm 3 mps 759 mmHg 84%
21:00 +9°C° 0 mm 3 mps 759 mmHg 91%
22:00 +8°C° 0 mm 3 mps 759 mmHg 92%
23:00 +8°C° 0 mm 3 mps 759 mmHg 92%
Show more